Flag for Germany Weather past 2 weeks in Nürtingen, Baden-Württemberg, Germany

52 °F

Partly cloudy.

Feels Like: 49 °F
Forecast: 40 / 59 °F
Wind: 7 mph from Northeast

Location: Stuttgart-Echterdingen

Current Time: Oct 10, 2015 at 9:06:20 PM

Latest Report: Oct 10, 2015 at 8:20 PM

Visibility: N/A

Pressure: 29.95 "Hg

Humidity: 88%

Dew point: 48 °F

Location of NürtingenLocation

Historic Weather in Nürtingen — Graph


Nürtingen temperature yesterday

Maximum temperature yesterday: 61 °F (at 3:50 PM)
Minimum temperature yesterday: 48 °F (at 5:50 AM)
Average temperature yesterday: 54 °F

Past Weeks' High & Low Weather Summary

High72 °F (Oct 3, 3:50 PM)100% (Oct 4, 8:20 PM)30.51 "Hg (Oct 4, 8:20 PM)
Low41 °F (Oct 1, 4:50 AM)32% (Sep 30, 3:50 PM)29.74 "Hg (Oct 6, 9:50 AM)
Average55 °F73%30.16 "Hg
* Reported Sep 25 7:20 PM — Oct 10 7:50 PM, Nürtingen, Weather by CustomWeather, © 2015

Note: Actual official high and low records may vary slightly from our data, if they occured in-between our weather recording intervals... More about our weather records


Nürtingen weather history for previous 24 hours

Time TempWeatherWind HumidityBarometerVisibility
7:50 PM
Sat, Oct 10
54 °FPartly cloudy.9 mph82%29.95 "HgN/A
7:20 PM54 °FBroken clouds.9 mph82%29.98 "HgN/A
6:50 PM54 °FBroken clouds.10 mph82%29.95 "HgN/A
6:20 PM55 °FBroken clouds.9 mph77%29.95 "HgN/A
5:50 PM55 °FBroken clouds.10 mph77%29.95 "HgN/A
5:20 PM57 °FScattered clouds.12 mph77%29.95 "HgN/A
4:50 PM55 °FBroken clouds.12 mph82%29.95 "HgN/A
4:20 PM55 °FPartly sunny.9 mph77%29.95 "HgN/A
3:50 PM55 °FBroken clouds.7 mph77%29.98 "HgN/A
3:20 PM55 °FPartly sunny.9 mph77%29.98 "HgN/A
2:50 PM55 °FPartly sunny.6 mph77%29.98 "HgN/A
2:20 PM55 °FPartly sunny.3 mph77%30.01 "HgN/A
1:50 PM54 °FBroken clouds.6 mph82%30.01 "HgN/A
1:20 PM54 °FBroken clouds.2 mph82%30.01 "HgN/A
12:50 PM52 °FBroken clouds.2 mph94%30.01 "HgN/A
12:20 PM52 °FBroken clouds.3 mph94%30.01 "HgN/A
11:50 AM52 °FBroken clouds.5 mph94%30.04 "HgN/A
11:20 AM52 °FBroken clouds.2 mph94%30.04 "HgN/A
10:50 AM50 °FPartly sunny.6 mph100%30.04 "Hg5 mi
10:20 AM50 °FPartly sunny.2 mph100%30.04 "Hg4 mi
9:50 AM50 °FFog.3 mph100%30.04 "Hg2 mi
9:20 AM48 °FFog.2 mph100%30.04 "Hg1 mi
8:50 AM46 °FFog.1 mph100%30.04 "Hg0 mi
8:20 AM46 °FFog.1 mph100%30.04 "Hg0 mi
7:50 AM46 °FFog.2 mph100%30.04 "Hg0 mi
7:20 AM45 °FSleet. Passing clouds.1 mph100%30.04 "Hg4 mi
6:50 AM45 °FLight fog.1 mph93%30.04 "Hg5 mi
6:20 AM43 °FLight fog.2 mph100%30.04 "HgN/A
5:50 AM45 °FLight fog.1 mph100%30.04 "HgN/A
5:20 AM46 °FClear.1 mph93%30.04 "Hg10 mi
4:50 AM46 °FClear.2 mph100%30.04 "Hg10 mi
4:20 AM46 °FClear.2 mph93%30.04 "Hg10 mi
3:50 AM48 °FClear.3 mph94%30.07 "Hg10 mi
3:20 AM48 °FClear.2 mph94%30.07 "Hg10 mi
2:50 AM48 °FClear.3 mph94%30.07 "Hg10 mi
2:20 AM48 °FClear.5 mph94%30.07 "Hg10 mi
1:50 AM48 °FPassing clouds.3 mph94%30.07 "HgN/A
1:20 AM48 °FPassing clouds.5 mph94%30.07 "HgN/A
12:50 AM50 °FClear.6 mph88%30.07 "Hg10 mi
12:20 AM52 °FClear.3 mph88%30.09 "Hg10 mi
11:20 PM
Fri, Oct 9
52 °FPartly cloudy.3 mph88%30.09 "HgN/A
10:50 PM54 °FPartly cloudy.2 mph88%30.09 "HgN/A
10:20 PM54 °FPartly cloudy.2 mph88%30.09 "HgN/A
9:50 PM54 °FPartly cloudy.1 mph88%30.09 "HgN/A
9:20 PM54 °FPassing clouds.2 mph88%30.09 "HgN/A
Weather by CustomWeather, © 2015

See weather overviewHow to use our weather pages